User: anonymous   Login
Location: Daybis Observatory
(33.4273°N, 88.8061°W)
Time: 14:55:50
(UTC-05:00)
Language:

Coronas F rocket - Orbit

View from above orbital plane
View from above orbital plane
View from above satellite
View from above satellite

Ground track
Ground track

The orbit data is extracted from the following two-line orbital elements,

1 26874U 01032B   16239.17851457  .00026292  00000-0  11577-3 0  9997
2 26874  82.4584 205.0167 0003005 303.0916  57.0064 15.84361353846718
Epoch (UTC): 26 August 2016 04:17:03
Eccentricity: 0.0003005
inclination: 82.4584°
perigee height: 316 km
apogee height: 320 km
right ascension of ascending node: 205.0167°
argument of perigee: 303.0916°
revolutions per day: 15.84361353
mean anomaly at epoch: 57.0064°
orbit number at epoch: 84671

The dashed part of the orbit path shows where the satellite is in the earth's shadow,  

DLR